Regional Weather Roundup
Issued by NWS

Home | Current Version | Previous Version | Graphics & Text | Print | Product List | Glossary Off
Versions: 1 2 3 4 5 6 7 8 9 10 11 12 13 14 15 16 17 18 19 20 21 22 23 24 25 26 27 28 29 30 31 32 33 34 35 36 37 38 39 40 41 42 43 44 45 46 47 48 49 50

000
ASUS43 KTOP 051259
RWRKS

WEATHER ROUNDUP FOR KANSAS
NATIONAL WEATHER SERVICE GOODLAND KS
700 AM CST FRI FEB 05 2016

NOTE:  "FAIR" INDICATES FEW OR NO CLOUDS BELOW 12,000 FEET WITH NO
SIGNIFICANT WEATHER AND/OR OBSTRUCTIONS TO VISIBILITY.

KSZ001>006-013>018-027>032-041>047-051400-
NORTHWEST KANSAS

CITY           SKY/WX    TMP DP  RH WIND       PRES   REMARKS
GOODLAND       FLURRIES  29  25  85 W13       30.26R WCI  19
HAYS           CLOUDY    21   9  58 CALM      30.33R
HILL CITY      CLOUDY    24  19  81 CALM      30.30S
RUSSELL        CLOUDY    21  18  88 S6        30.33R
$$

KSZ061>065-074>080-084>089-051400-
SOUTHWEST KANSAS

CITY           SKY/WX    TMP DP  RH WIND       PRES   REMARKS
DODGE CITY     PTCLDY    23  17  78 NE9       30.27R
ELKHART          N/A     22  12  65 N8          N/A
GARDEN CITY    MOCLDY    24  17  74 NE14      30.25R WCI  12
GREAT BEND     CLOUDY    25  16  68 N5        30.33F
LIBERAL        CLOUDY    28  12  50 E13       30.16S WCI  18
$$

KSZ066>073-081>083-090>101-051400-
SOUTHEAST KANSAS

CITY           SKY/WX    TMP DP  RH WIND       PRES   REMARKS
CHANUTE        CLOUDY    28  20  71 E3        30.39R
COFFEYVILLE    CLOUDY    27  21  78 CALM      30.40R
HUTCHINSON     CLOUDY    23  18  81 NW3       30.36R
MEDICINE LODGE   N/A     26  21  81 CALM      30.33S
NEWTON         CLOUDY    25  18  74 CALM      30.37R
PARSONS        CLOUDY    30  19  63 CALM      30.40R
WICHITA INTL   MOCLDY    29  20  69 N5        30.35R
WICHITA JABRA  CLOUDY    24  20  84 N5        30.36R
WINFIELD       CLOUDY    29  19  66 CALM      30.37R
$$

KSZ007>012-019>026-033>040-048>060-102>105-051400-
NORTHEAST KANSAS

CITY           SKY/WX    TMP DP  RH WIND       PRES   REMARKS
CONCORDIA      CLOUDY    23  18  81 SW5       30.36R
EMPORIA        PTCLDY    22  19  89 CALM      30.38R
LAWRENCE       CLOUDY    21  18  88 NE6       30.41R
MANHATTAN      CLOUDY    21  18  88 W3        30.40R
OLATHE IND     PTCLDY    23  20  88 CALM      30.40R
OLATHE EXE     PTCLDY    23  19  85 CALM      30.40R
SALINA         CLOUDY    26  20  77 W5        30.39R
TOPEKA BILLARD CLOUDY    24  19  81 NE3       30.41R
TOPEKA FORBES  CLOUDY    22  18  85 CALM      30.39S
$$



USA.gov is the U.S. government's official web portal to all federal, state and local government web resources and services.